ITARNLAS2 Weather Reports


Display with metric or nautical units.
time (UTC)temp
F
wind
direction
speed
MPH
gust
MPH
rain 1hr
in
rain 24hr
in
rain mn
in
humidity
%
barometer
mb
20260505230058 46 120 1.0 6.0 0.00 0.70 0.00 100 1012.1
20260505224554 46 0 1.0 3.0 0.00 0.74 0.00 100 1012.1
20260505223100 46 57 1.0 4.0 0.00 0.74 0.00 100 1012.3
20260505221603 46 163 0.0 3.0 0.00 0.74 0.00 100 1012.5
20260505220059 46 157 0.0 3.0 0.00 0.74 0.00 100 1012.7
20260505214559 46 140 0.0 6.0 0.00 0.74 0.74 100 1012.5
20260505213102 46 168 0.0 2.0 0.00 0.74 0.74 100 1012.8
20260505211602 45 168 1.0 3.0 0.00 0.74 0.74 100 1013.0
20260505210103 45 0 0.0 4.0 0.00 0.74 0.74 100 1013.0
20260505204554 46 200 0.0 3.0 0.00 0.88 0.74 100 1013.2
20260505203059 46 225 1.0 5.0 0.00 0.88 0.74 100 1013.1
20260505201557 45 165 1.0 4.0 0.00 0.88 0.74 100 1012.9
20260505200056 45 209 1.0 3.0 0.00 0.88 0.74 100 1012.7
20260505194601 45 194 0.0 3.0 0.00 1.07 0.74 100 1012.5
20260505193125 45 0 0.0 3.0 0.01 1.07 0.74 100 1012.3
20260505191605 46 0 0.0 3.0 0.04 1.07 0.74 100 1012.2
20260505190056 46 140 1.0 3.0 0.09 1.07 0.74 100 1011.9
20260505184556 46 163 1.0 4.0 0.13 1.48 0.73 100 1012.1
20260505183056 46 177 0.0 5.0 0.18 1.47 0.72 100 1012.5
20260505181555 46 75 1.0 6.0 0.22 1.44 0.69 100 1012.7
20260505180058 46 186 2.0 5.0 0.23 1.39 0.64 100 1012.5
20260505174558 46 198 1.0 9.0 0.25 1.70 0.59 100 1012.4
20260505173059 46 128 2.0 10.0 0.20 1.63 0.53 100 1012.5
20260505171556 46 221 2.0 9.0 0.14 1.56 0.46 100 1012.4
20260505170057 46 128 3.0 10.0 0.09 1.51 0.40 100 1012.3
20260505164556 47 71 3.0 9.0 0.03 1.44 0.34 100 1012.2
20260505163059 47 156 3.0 14.0 0.01 1.43 0.33 100 1011.9
20260505161556 51 155 3.0 15.0 0.00 1.41 0.31 100 1012.0
20260505153140 57 0 0.0 3.0 0.00 1.41 0.31 100 1010.7
20260505151558 57 0 0.0 4.0 0.00 1.41 0.31 100 1011.2
20260505140106 56 0 0.0 1.0 0.00 1.41 0.31 100 1011.5
20260505124600 58 156 1.0 5.0 0.00 1.41 0.31 100 1012.2
20260505123113 57 0 1.0 6.0 0.00 1.41 0.31 100 1012.0
20260505121554 57 95 2.0 7.0 0.00 1.41 0.31 100 1012.1
20260505114558 56 121 1.0 5.0 0.00 1.41 0.31 100 1012.5
20260505113104 54 161 1.0 7.0 0.00 1.41 0.31 100 1012.7
20260505111557 54 0 1.0 4.0 0.00 1.41 0.31 97 1013.0
20260505101555 50 191 1.0 4.0 0.00 1.41 0.31 96 1013.2
20260505100057 49 224 1.0 4.0 0.00 1.41 0.31 96 1013.2
20260505094558 49 284 0.0 4.0 0.00 1.42 0.31 96 1013.2
20260505093058 49 235 1.0 3.0 0.00 1.42 0.31 97 1013.3
20260505091619 49 131 1.0 4.0 0.00 1.42 0.31 97 1013.1
20260505090119 48 82 1.0 5.0 0.00 1.42 0.31 97 1012.9
20260505084613 48 240 1.0 4.0 0.00 1.46 0.31 97 1012.9
20260505083112 48 186 1.0 6.0 0.00 1.46 0.31 97 1012.6
20260505081605 48 266 1.0 7.0 0.00 1.46 0.31 97 1012.6
20260505080107 48 0 1.0 4.0 0.00 1.46 0.31 97 1012.8
20260505074559 48 236 0.0 4.0 0.00 1.46 0.31 98 1012.7
20260505073101 48 184 1.0 3.0 0.01 1.46 0.31 98 1012.7
20260505071613 48 177 1.0 8.0 0.01 1.46 0.31 98 1012.6
20260505070055 48 0 0.0 3.0 0.03 1.46 0.31 98 1012.7
20260505064600 48 187 1.0 4.0 0.02 1.45 0.30 98 1012.7
20260505063057 47 250 0.0 4.0 0.02 1.44 0.29 98 1012.6
20260505061559 47 0 1.0 2.0 0.02 1.44 0.29 98 1012.4
20260505060104 47 202 0.0 3.0 0.03 1.43 0.28 98 1012.4
20260505054601 47 5 2.0 7.0 0.04 1.43 0.28 99 1012.4
20260505053058 47 190 1.0 5.0 0.07 1.42 0.27 99 1012.3
20260505051553 47 0 1.0 4.0 0.09 1.41 0.26 99 1012.4
20260505041603 48 0 1.0 4.0 0.01 1.32 0.17 100 1012.0
20260505040058 48 0 1.0 6.0 0.00 1.31 0.16 100 1011.9
20260505034555 48 38 0.0 3.0 0.01 1.31 0.16 100 1012.0
20260505033056 48 192 0.0 3.0 0.02 1.31 0.16 100 1012.2
20260505031555 48 0 1.0 4.0 0.02 1.30 0.15 100 1012.0
20260505030126 48 123 0.0 4.0 0.02 1.30 0.15 100 1012.1
20260505024559 48 0 1.0 6.0 0.03 1.30 0.14 100 1012.4
20260505023056 48 0 1.0 4.0 0.03 1.29 0.14 100 1012.2
20260505021555 48 355 0.0 3.0 0.03 1.29 0.13 100 1012.2
20260505020100 48 161 1.0 6.0 0.03 1.29 0.13 100 1012.0
20260505014610 48 230 1.0 5.0 0.02 1.26 0.11 100 1012.3
20260505013056 48 138 1.0 7.0 0.02 1.25 0.10 100 1012.3
20260505011558 48 265 4.0 11.0 0.02 1.25 0.10 100 1012.4
20260505010103 48 113 1.0 5.0 0.02 1.25 0.09 100 1012.4
20260505004556 48 184 1.0 5.0 0.02 1.24 0.08 100 1012.6
20260505003101 48 182 1.0 6.0 0.02 1.23 0.07 100 1012.7
20260505001557 48 208 1.0 5.0 0.03 1.23 0.07 100 1012.5
20260504234557 48 176 1.0 4.0 0.02 1.22 0.06 100 1012.6
20260504233059 48 0 2.0 6.0 0.03 1.21 0.05 100 1012.6
20260504231555 48 87 1.0 7.0 0.04 1.20 0.04 100 1012.7